{"data":{"norad_id":58340,"epoch":"2026-09-19T05:45:57.981888Z","epoch_age_seconds":123072,"freshness":"FRESH","line1":"1 58340U 23174CN  26262.24025442  .00015254  00000+0  29277-3 0  9994","line2":"2 58340  97.3942 354.2070 0006494 129.7719 230.4104 15.48051726160185","mean_motion":15.48051726,"eccentricity":0.0006494,"inclination_deg":97.3942,"raan_deg":354.207,"arg_perigee_deg":129.7719,"mean_anomaly_deg":230.4104,"bstar":0.00029277,"rev_number":16018,"period_min":93.02014757096,"perigee_km":418.00962757232,"apogee_km":426.84219868389,"semimajor_km":6800.5629131281,"source":"CELESTRAK","updated_at":"2026-09-20T09:00:34.870016Z"}}